Location: West Cummington
(42.4920°N, 72.9680°W)
Time: 12:26:08
(UTC-04:00)

ATLAS 2AS CENTAUR R/B - Visible Passes

Search period start: 26 May 2016 00:00
Search period end: 05 June 2016 00:00
Orbit: 904 x 1308 km, 63.7° (Epoch: 01 May)

Date Brightness Start Highest point End Pass type
(mag) Time Alt. Az. Time Alt. Az. Time Alt. Az.
30 May 5.3 04:07:58 10° ESE 04:10:39 12° E 04:13:23 10° E visible
01 Jun 4.7 04:25:00 10° SSE 04:31:04 28° ESE 04:37:32 10° NE visible
02 Jun 5.0 03:42:18 10° SE 03:46:49 17° ESE 03:51:31 10° ENE visible
04 Jun 4.2 04:00:45 10° S 04:07:22 37° ESE 04:14:29 10° NE visible
